White Center, Washington, United States
Lat: 47.52N, Lon: 122.35W
Wx Zone: WAZ508
Local Info
Past Weather Observations for Today

NOTE: This archive is for the closest National Weather Service station to White Center. Information may differ from the station used for current weather conditions.

Time Weather Temperature Dewpoint Humidity Pressure Winds Precip Visibility
22:53
Overcast
46°F / 8°C 43°F / 6°C 87% 29.89 in
(1012 mb)
SSE 11.5 mph
(SSE 19 kph)
0.00 in
(0.00 mm)
10SM
21:53
Overcast
Light Rain
46°F / 8°C 39°F / 4°C 76% 29.89 in
(1012 mb)
SSE 9.2 mph
(SSE 15 kph)
0.07 in
(1.78 mm)
9SM
20:53
Overcast
Light Rain
48°F / 9°C 43°F / 6°C 82% 29.89 in
(1012 mb)
SE 10.4 mph
(SE 17 kph)
0.01 in
(0.25 mm)
10SM
19:53
Overcast
Light Rain
48°F / 9°C 43°F / 6°C 82% 29.89 in
(1012 mb)
SSE 8.1 mph
(SSE 13 kph)
0.08 in
(2.03 mm)
10SM
19:35
Overcast
Light Rain
48°F / 9°C 43°F / 6°C 82% 29.89 in
(1012 mb)
SSE 6.9 mph
(SSE 11 kph)
0.07 in
(1.78 mm)
8SM
19:27
Overcast
Light Rain
48°F / 9°C 43°F / 6°C 82% 29.89 in
(1012 mb)
S 5.8 mph
(S 9 kph)
0.06 in
(1.52 mm)
7SM
18:53
Overcast
Light Rain
48°F / 9°C 43°F / 6°C 82% 29.89 in
(1012 mb)
SE 10.4 mph
(SE 17 kph)
0.01 in
(0.25 mm)
10SM
17:53
Mostly Cloudy
50°F / 10°C 39°F / 4°C 67% 29.89 in
(1012 mb)
SE 9.2 mph
(SE 15 kph)
- 10SM
16:53
Overcast
52°F / 11°C 41°F / 5°C 67% 29.89 in
(1012 mb)
SSE 9.2 mph
(SSE 15 kph)
0.01 in
(0.25 mm)
10SM
15:53
Mostly Cloudy
54°F / 12°C 39°F / 4°C 58% 29.89 in
(1012 mb)
S 12.7 mph
(S 20 kph)
- 10SM
14:53
Overcast
55°F / 13°C 39°F / 4°C 55% 29.89 in
(1012 mb)
S 16.1 mph
(S 26 kph)
0.00 in
(0.00 mm)
10SM
13:53
Partly Cloudy
55°F / 13°C 39°F / 4°C 55% 29.89 in
(1012 mb)
SSE 10.4 mph
(SSE 17 kph)
0.01 in
(0.25 mm)
10SM
12:53
Mostly Cloudy
57°F / 14°C 39°F / 4°C 51% 29.89 in
(1012 mb)
SSE 12.7 mph
(SSE 20 kph)
- 10SM
11:53
Mostly Cloudy
55°F / 13°C 39°F / 4°C 55% 29.89 in
(1012 mb)
SW 5.8 mph
(SW 9 kph)
- 10SM
10:53
Mostly Cloudy
52°F / 11°C 39°F / 4°C 62% 29.92 in
(1013 mb)
Variable 4.6 mph
(Variable 7 kph)
- 10SM
09:53
Mostly Cloudy
48°F / 9°C 39°F / 4°C 71% 29.92 in
(1013 mb)
SE 4.6 mph
(SE 7 kph)
- 10SM
08:53
Overcast
46°F / 8°C 39°F / 4°C 76% 29.92 in
(1013 mb)
ESE 6.9 mph
(ESE 11 kph)
- 10SM
07:53
Overcast
45°F / 7°C 39°F / 4°C 81% 29.92 in
(1013 mb)
SE 9.2 mph
(SE 15 kph)
0.01 in
(0.25 mm)
10SM
07:41
Overcast
45°F / 7°C 39°F / 4°C 81% 29.92 in
(1013 mb)
SE 9.2 mph
(SE 15 kph)
0.01 in
(0.25 mm)
10SM
06:53
Overcast
Light Rain
45°F / 7°C 39°F / 4°C 81% 29.92 in
(1013 mb)
ESE 4.6 mph
(ESE 7 kph)
0.04 in
(1.02 mm)
7SM
05:53
Overcast
Light Rain
45°F / 7°C 39°F / 4°C 81% 29.92 in
(1013 mb)
Calm 0.04 in
(1.02 mm)
8SM
04:53
Overcast
Light Rain
45°F / 7°C 37°F / 3°C 76% 29.89 in
(1012 mb)
Variable 4.6 mph
(Variable 7 kph)
0.06 in
(1.52 mm)
10SM
03:53
Overcast
Light Rain
46°F / 8°C 39°F / 4°C 76% 29.86 in
(1011 mb)
NE 4.6 mph
(NE 7 kph)
0.04 in
(1.02 mm)
10SM
02:53
Overcast
Light Rain
46°F / 8°C 41°F / 5°C 82% 29.86 in
(1011 mb)
Calm 0.04 in
(1.02 mm)
10SM
01:53
Overcast
Light Rain
46°F / 8°C 43°F / 6°C 87% 29.86 in
(1011 mb)
Calm 0.06 in
(1.52 mm)
8SM
00:53
Overcast
Light Rain
48°F / 9°C 43°F / 6°C 82% 29.83 in
(1010 mb)
Calm 0.02 in
(0.51 mm)
10SM
Time Weather Temperature Dewpoint Humidity Pressure Winds Precip Visibility


Weather for websites

WeatherForYou.com, LLC is not responsible for any damages or problems caused by this service. Current weather conditions are obtained from the closest station including government and personal stations which may have varying degrees of accuracy. Weather forecasts are derived from the NOAA NDFD. Like all things, this site belongs to Jesus Christ... He just trusts me to maintain it. If you have any questions or comments email webmaster@weatherforyou.com

Copyright © 2014, WeatherForYou.com LLC. All rights reserved.